NDF271 EPKK-LDZA

Flight info

Callsign NDF271
Flight time 0h 56m
Altitude 38000
Route BABKO5J BABKO DCT VADEX DCT TOVKA DCT TISKO DCT PETOV PETOV2Y
Aircraft A20N/M-SDE2E3FGHIRWXY/LB1

Departure

Time 2026-05-07 19:44
Airport Kraków John Paul II International Airport (EPKK)

Arrival

Time 2026-05-07 20:40
Airport Zagreb Franjo Tuđman International Airport (LDZA)
Time Latitude Longitude Altitude Speed Heading
2026-05-07 19:06 50.07302 19.80028 790 ft 0 kts 156°
2026-05-07 19:35 50.07307 19.80024 790 ft 3 kts 158°
2026-05-07 19:35 50.07332 19.80011 789 ft 4 kts 166°
2026-05-07 19:35 50.07359 19.80003 789 ft 4 kts 173°
2026-05-07 19:36 50.07385 19.79996 789 ft 4 kts 150°
2026-05-07 19:36 50.07394 19.79984 789 ft 0 kts 98°
2026-05-07 19:40 50.07393 19.79999 790 ft 3 kts 97°
2026-05-07 19:40 50.07395 19.80042 789 ft 6 kts 80°
2026-05-07 19:40 50.07404 19.80124 789 ft 9 kts 80°
2026-05-07 19:40 50.07417 19.80229 789 ft 11 kts 78°
2026-05-07 19:41 50.07438 19.80347 789 ft 12 kts 57°
2026-05-07 19:41 50.07512 19.80399 788 ft 12 kts 16°
2026-05-07 19:41 50.07597 19.80410 788 ft 13 kts 348°
2026-05-07 19:41 50.07686 19.80383 788 ft 13 kts 348°
2026-05-07 19:42 50.07778 19.80353 788 ft 14 kts 348°
2026-05-07 19:42 50.07859 19.80327 790 ft 10 kts 348°
2026-05-07 19:42 50.07932 19.80304 788 ft 11 kts 348°
2026-05-07 19:42 50.08006 19.80251 788 ft 12 kts 304°
2026-05-07 19:43 50.08001 19.80137 789 ft 11 kts 259°
2026-05-07 19:43 50.07992 19.80061 790 ft 11 kts 259°
2026-05-07 19:43 50.07954 19.79806 791 ft 56 kts 256°
2026-05-07 19:43 50.07767 19.78415 795 ft 136 kts 258°
2026-05-07 19:44 50.07528 19.76781 993 ft 165 kts 258°
2026-05-07 19:44 50.07334 19.75618 1428 ft 164 kts 256°
2026-05-07 19:44 50.07014 19.73892 2118 ft 166 kts 255°
2026-05-07 19:44 50.06704 19.72164 2816 ft 170 kts 255°
2026-05-07 19:45 50.06353 19.70298 3354 ft 189 kts 255°
2026-05-07 19:45 50.05954 19.68254 3837 ft 211 kts 253°
2026-05-07 19:45 50.05259 19.66132 4454 ft 231 kts 232°
2026-05-07 19:45 50.03979 19.64535 5252 ft 243 kts 208°
2026-05-07 19:46 50.02335 19.63870 6062 ft 249 kts 185°
2026-05-07 19:46 50.00557 19.64212 6678 ft 272 kts 167°
2026-05-07 19:46 49.98708 19.65188 7347 ft 287 kts 161°
2026-05-07 19:46 49.96809 19.66303 8119 ft 296 kts 163°
2026-05-07 19:47 49.94822 19.67309 8949 ft 304 kts 166°
2026-05-07 19:47 49.92763 19.68181 9842 ft 309 kts 168°
2026-05-07 19:47 49.90641 19.68934 10584 ft 319 kts 170°
2026-05-07 19:47 49.88385 19.69178 11075 ft 329 kts 187°
2026-05-07 19:48 49.86165 19.68333 11912 ft 330 kts 204°
2026-05-07 19:48 49.84120 19.66663 12773 ft 333 kts 210°
2026-05-07 19:48 49.82093 19.64899 13641 ft 336 kts 209°
2026-05-07 19:48 49.80041 19.63122 14415 ft 339 kts 209°
2026-05-07 19:49 49.77977 19.61341 15214 ft 340 kts 209°
2026-05-07 19:49 49.75904 19.59557 15983 ft 343 kts 210°
2026-05-07 19:49 49.73814 19.57762 16772 ft 345 kts 210°
2026-05-07 19:49 49.71709 19.55955 17537 ft 346 kts 210°
2026-05-07 19:50 49.69593 19.54141 18243 ft 350 kts 210°
2026-05-07 19:50 49.67454 19.52311 18868 ft 353 kts 209°
2026-05-07 19:50 49.65332 19.50495 19497 ft 355 kts 209°
2026-05-07 19:50 49.63279 19.48719 20067 ft 358 kts 210°
2026-05-07 19:51 49.61148 19.46455 20735 ft 361 kts 217°
2026-05-07 19:51 49.59262 19.43863 21323 ft 366 kts 223°
2026-05-07 19:51 49.57503 19.40973 21913 ft 370 kts 224°
2026-05-07 19:51 49.55738 19.38062 22491 ft 374 kts 223°
2026-05-07 19:52 49.53956 19.35137 23064 ft 377 kts 223°
2026-05-07 19:52 49.52141 19.32172 23603 ft 380 kts 223°
2026-05-07 19:52 49.50322 19.29208 24104 ft 383 kts 223°
2026-05-07 19:52 49.48492 19.26230 24642 ft 384 kts 223°
2026-05-07 19:53 49.46652 19.23241 25139 ft 386 kts 223°
2026-05-07 19:53 49.44793 19.20226 25628 ft 388 kts 223°
2026-05-07 19:53 49.42931 19.17208 26098 ft 390 kts 223°
2026-05-07 19:53 49.41060 19.14179 26589 ft 391 kts 223°
2026-05-07 19:54 49.39202 19.11176 27009 ft 394 kts 223°
2026-05-07 19:54 49.37309 19.08120 27461 ft 396 kts 223°
2026-05-07 19:54 49.35407 19.05051 27913 ft 397 kts 223°
2026-05-07 19:54 49.33497 19.01975 28365 ft 399 kts 223°
2026-05-07 19:55 49.31584 18.98896 28849 ft 399 kts 223°
2026-05-07 19:55 49.29664 18.95810 29227 ft 400 kts 223°
2026-05-07 19:55 49.27745 18.92730 29721 ft 400 kts 223°
2026-05-07 19:55 49.25821 18.89638 30043 ft 403 kts 224°
2026-05-07 19:56 49.24024 18.86324 30353 ft 407 kts 230°
2026-05-07 19:56 49.22336 18.82819 30668 ft 410 kts 230°
2026-05-07 19:56 49.20646 18.79312 30981 ft 411 kts 230°
2026-05-07 19:56 49.18941 18.75784 31329 ft 412 kts 230°
2026-05-07 19:57 49.17244 18.72278 31742 ft 410 kts 230°
2026-05-07 19:57 49.15543 18.68774 32115 ft 410 kts 230°
2026-05-07 19:57 49.13842 18.65279 32529 ft 409 kts 230°
2026-05-07 19:57 49.12146 18.61798 32941 ft 407 kts 230°
2026-05-07 19:58 49.10452 18.58331 33319 ft 407 kts 230°
2026-05-07 19:58 49.08763 18.54874 33703 ft 406 kts 230°
2026-05-07 19:58 49.07078 18.51430 34083 ft 404 kts 230°
2026-05-07 19:58 49.05395 18.47996 34354 ft 404 kts 230°
2026-05-07 19:59 49.03728 18.44598 34571 ft 406 kts 230°
2026-05-07 19:59 49.02038 18.41158 34785 ft 406 kts 230°
2026-05-07 19:59 49.00343 18.37716 34991 ft 407 kts 230°
2026-05-07 19:59 48.98644 18.34269 35183 ft 407 kts 230°
2026-05-07 20:00 48.96944 18.30819 35432 ft 407 kts 231°
2026-05-07 20:00 48.95235 18.27361 35537 ft 412 kts 231°
2026-05-07 20:00 48.91759 18.20338 35772 ft 417 kts 231°
2026-05-07 20:01 48.90012 18.16812 36023 ft 417 kts 232°
2026-05-07 20:01 48.88266 18.13291 36233 ft 416 kts 232°
2026-05-07 20:01 48.86524 18.09783 36460 ft 416 kts 232°
2026-05-07 20:01 48.84778 18.06272 36684 ft 416 kts 232°
2026-05-07 20:02 48.83038 18.02777 36899 ft 416 kts 232°
2026-05-07 20:02 48.81293 17.99278 37096 ft 416 kts 232°
2026-05-07 20:02 48.79548 17.95784 37293 ft 415 kts 232°
2026-05-07 20:02 48.77828 17.92344 37485 ft 415 kts 232°
2026-05-07 20:03 48.76080 17.88853 37658 ft 416 kts 232°
2026-05-07 20:03 48.74329 17.85361 37842 ft 415 kts 232°
2026-05-07 20:03 48.72584 17.81883 37985 ft 415 kts 232°
2026-05-07 20:03 48.70830 17.78394 38004 ft 414 kts 232°
2026-05-07 20:04 48.67341 17.71464 38004 ft 414 kts 232°
2026-05-07 20:04 48.63840 17.64530 38004 ft 414 kts 232°
2026-05-07 20:05 48.60356 17.57649 38000 ft 418 kts 232°
2026-05-07 20:05 48.56806 17.50653 38011 ft 420 kts 232°
2026-05-07 20:06 48.53243 17.43650 38014 ft 421 kts 232°
2026-05-07 20:06 48.49682 17.36669 38001 ft 418 kts 232°
2026-05-07 20:07 48.46127 17.29716 38002 ft 419 kts 232°
2026-05-07 20:07 48.42561 17.22763 38003 ft 419 kts 232°
2026-05-07 20:08 48.39000 17.15835 37997 ft 419 kts 232°
2026-05-07 20:08 48.35427 17.08900 37995 ft 418 kts 232°
2026-05-07 20:09 48.31879 17.02033 37998 ft 418 kts 232°
2026-05-07 20:10 48.25723 16.92857 37989 ft 418 kts 216°
2026-05-07 20:10 48.20595 16.88719 38000 ft 420 kts 204°
2026-05-07 20:11 48.15160 16.85460 38021 ft 420 kts 204°
2026-05-07 20:11 48.09744 16.82180 38023 ft 420 kts 204°
2026-05-07 20:12 48.04318 16.78906 38032 ft 420 kts 205°
2026-05-07 20:12 47.98896 16.75644 38028 ft 420 kts 205°
2026-05-07 20:13 47.93494 16.72400 38030 ft 421 kts 205°
2026-05-07 20:13 47.88057 16.69143 38028 ft 421 kts 205°
2026-05-07 20:14 47.82613 16.65892 38027 ft 421 kts 205°
2026-05-07 20:14 47.77175 16.62649 38029 ft 421 kts 205°
2026-05-07 20:15 47.71728 16.59408 38031 ft 421 kts 205°
2026-05-07 20:15 47.66282 16.56176 38035 ft 421 kts 205°
2026-05-07 20:16 47.60840 16.52953 38037 ft 421 kts 205°
2026-05-07 20:16 47.55391 16.49733 38035 ft 421 kts 205°
2026-05-07 20:17 47.49946 16.46523 38035 ft 421 kts 205°
2026-05-07 20:17 47.44533 16.43340 37689 ft 418 kts 205°
2026-05-07 20:17 47.41850 16.41768 37425 ft 414 kts 205°
2026-05-07 20:18 47.39185 16.40204 37163 ft 413 kts 205°
2026-05-07 20:18 47.36504 16.38631 36906 ft 415 kts 205°
2026-05-07 20:18 47.33816 16.37057 36443 ft 417 kts 205°
2026-05-07 20:18 47.31110 16.35472 35712 ft 421 kts 205°
2026-05-07 20:19 47.28387 16.33881 35033 ft 421 kts 205°
2026-05-07 20:19 47.25658 16.32290 34315 ft 421 kts 205°
2026-05-07 20:19 47.22931 16.30701 33452 ft 422 kts 205°
2026-05-07 20:19 47.20211 16.29118 32746 ft 420 kts 205°
2026-05-07 20:20 47.17495 16.27538 31959 ft 420 kts 205°
2026-05-07 20:20 47.14783 16.25962 31201 ft 419 kts 205°
2026-05-07 20:20 47.12084 16.24396 30682 ft 413 kts 205°
2026-05-07 20:20 47.09433 16.22860 30125 ft 408 kts 205°
2026-05-07 20:21 47.06834 16.21354 29528 ft 403 kts 204°
2026-05-07 20:21 47.04208 16.19838 28952 ft 397 kts 205°
2026-05-07 20:21 47.01690 16.18382 28420 ft 391 kts 205°
2026-05-07 20:21 46.99179 16.16931 27883 ft 386 kts 205°
2026-05-07 20:22 46.96693 16.15495 27347 ft 382 kts 205°
2026-05-07 20:22 46.94233 16.14077 26821 ft 378 kts 204°
2026-05-07 20:22 46.91792 16.12670 26290 ft 374 kts 204°
2026-05-07 20:22 46.89378 16.11281 25770 ft 371 kts 204°
2026-05-07 20:23 46.86950 16.09882 25234 ft 386 kts 204°
2026-05-07 20:23 46.84381 16.08401 24681 ft 405 kts 204°
2026-05-07 20:23 46.81725 16.06875 24088 ft 412 kts 203°
2026-05-07 20:23 46.79045 16.05340 23451 ft 413 kts 203°
2026-05-07 20:24 46.76375 16.03816 22849 ft 409 kts 203°
2026-05-07 20:24 46.73746 16.02319 22278 ft 402 kts 203°
2026-05-07 20:24 46.71161 16.00855 21695 ft 396 kts 201°
2026-05-07 20:24 46.68527 15.99725 21124 ft 392 kts 194°
2026-05-07 20:25 46.65851 15.99110 20550 ft 388 kts 188°
2026-05-07 20:25 46.63163 15.98950 19990 ft 385 kts 184°
2026-05-07 20:25 46.60497 15.98856 19427 ft 381 kts 185°
2026-05-07 20:25 46.57859 15.98750 18861 ft 377 kts 185°
2026-05-07 20:26 46.55244 15.98640 18298 ft 374 kts 185°
2026-05-07 20:26 46.52657 15.98530 17708 ft 370 kts 185°
2026-05-07 20:26 46.50138 15.98423 17166 ft 365 kts 185°
2026-05-07 20:26 46.47617 15.98316 16618 ft 361 kts 185°
2026-05-07 20:27 46.45121 15.98212 16081 ft 357 kts 185°
2026-05-07 20:27 46.42655 15.98109 15549 ft 353 kts 185°
2026-05-07 20:27 46.40201 15.98005 15021 ft 350 kts 185°
2026-05-07 20:27 46.37775 15.97902 14500 ft 348 kts 185°
2026-05-07 20:28 46.35366 15.97801 13964 ft 345 kts 185°
2026-05-07 20:28 46.32969 15.97784 13425 ft 345 kts 177°
2026-05-07 20:28 46.30642 15.98606 12909 ft 346 kts 160°
2026-05-07 20:28 46.28587 16.00405 12393 ft 347 kts 143°
2026-05-07 20:29 46.26733 16.02625 11873 ft 345 kts 143°
2026-05-07 20:29 46.24897 16.04829 11353 ft 343 kts 143°
2026-05-07 20:29 46.23086 16.06996 10852 ft 341 kts 142°
2026-05-07 20:29 46.21245 16.09192 10361 ft 338 kts 142°
2026-05-07 20:30 46.19485 16.11288 10203 ft 325 kts 142°
2026-05-07 20:30 46.17781 16.13315 10071 ft 311 kts 142°
2026-05-07 20:30 46.16136 16.15269 9866 ft 302 kts 142°
2026-05-07 20:30 46.14528 16.17174 9606 ft 294 kts 142°
2026-05-07 20:31 46.12955 16.19036 9211 ft 292 kts 143°
2026-05-07 20:31 46.11843 16.20351 8802 ft 295 kts 143°
2026-05-07 20:31 46.10301 16.22172 8379 ft 294 kts 143°
2026-05-07 20:31 46.08216 16.24634 7834 ft 292 kts 143°
2026-05-07 20:32 46.06646 16.26489 7451 ft 291 kts 143°
2026-05-07 20:32 46.05088 16.28327 7056 ft 289 kts 143°
2026-05-07 20:32 46.03531 16.30162 6668 ft 288 kts 143°
2026-05-07 20:32 46.01999 16.32011 6292 ft 287 kts 139°
2026-05-07 20:33 46.01034 16.33303 6010 ft 287 kts 139°
2026-05-07 20:33 45.99578 16.35260 5604 ft 285 kts 139°
2026-05-07 20:33 45.98091 16.37109 5209 ft 280 kts 150°
2026-05-07 20:33 45.96310 16.38005 4784 ft 265 kts 179°
2026-05-07 20:34 45.94563 16.37610 4443 ft 248 kts 208°
2026-05-07 20:34 45.93235 16.36183 4128 ft 233 kts 230°
2026-05-07 20:34 45.92128 16.34466 3997 ft 241 kts 229°
2026-05-07 20:34 45.91005 16.32776 3993 ft 224 kts 229°
2026-05-07 20:35 45.89954 16.31140 3994 ft 223 kts 230°
2026-05-07 20:35 45.88953 16.29560 4002 ft 204 kts 230°
2026-05-07 20:35 45.88034 16.28112 3974 ft 192 kts 230°
2026-05-07 20:35 45.87178 16.26761 3882 ft 193 kts 230°
2026-05-07 20:36 45.86274 16.25340 3575 ft 191 kts 230°
2026-05-07 20:36 45.85378 16.23940 3298 ft 190 kts 230°
2026-05-07 20:36 45.84495 16.22560 3058 ft 188 kts 230°
2026-05-07 20:36 45.83606 16.21176 2795 ft 185 kts 230°
2026-05-07 20:37 45.82798 16.19880 2555 ft 168 kts 231°
2026-05-07 20:37 45.82034 16.18699 2348 ft 153 kts 229°
2026-05-07 20:37 45.81347 16.17648 2157 ft 136 kts 230°
2026-05-07 20:37 45.80733 16.16709 1978 ft 125 kts 230°
2026-05-07 20:38 45.80127 16.15776 1812 ft 129 kts 231°
2026-05-07 20:38 45.79526 16.14828 1638 ft 127 kts 230°
2026-05-07 20:38 45.78939 16.13918 1458 ft 123 kts 229°
2026-05-07 20:38 45.78338 16.13005 1298 ft 129 kts 227°
2026-05-07 20:39 45.77712 16.12042 1157 ft 136 kts 227°
2026-05-07 20:39 45.77039 16.11020 946 ft 144 kts 226°
2026-05-07 20:39 45.76353 16.10011 743 ft 140 kts 226°
2026-05-07 20:39 45.75684 16.09017 533 ft 135 kts 228°
2026-05-07 20:40 45.75056 16.08053 380 ft 133 kts 227°
2026-05-07 20:40 45.74491 16.07179 366 ft 96 kts 228°
2026-05-07 20:40 45.74845 16.07733 357 ft 0 kts 227°
2026-05-07 20:40 45.74842 16.07727 357 ft 7 kts 229°
2026-05-07 20:41 45.74719 16.07527 355 ft 34 kts 227°
2026-05-07 20:41 45.74553 16.07274 358 ft 35 kts 228°
2026-05-07 20:41 45.74392 16.07022 366 ft 34 kts 226°
2026-05-07 20:41 45.74222 16.06767 358 ft 38 kts 226°
2026-05-07 20:42 45.74030 16.06471 363 ft 43 kts 227°
2026-05-07 20:42 45.73873 16.06247 363 ft 15 kts 204°
2026-05-07 20:42 45.73797 16.06319 363 ft 7 kts 137°
2026-05-07 20:42 45.73792 16.06325 359 ft 0 kts 137°
2026-05-07 20:43 45.73791 16.06326 359 ft 1 kts 137°
2026-05-07 20:43 45.73768 16.06358 358 ft 8 kts 137°
2026-05-07 20:44 45.73716 16.06387 365 ft 9 kts 204°
2026-05-07 20:44 45.73669 16.06322 362 ft 10 kts 227°
2026-05-07 20:44 45.73613 16.06237 359 ft 14 kts 226°
2026-05-07 20:44 45.73534 16.06120 359 ft 18 kts 226°
2026-05-07 20:45 45.73452 16.05995 356 ft 5 kts 227°
2026-05-07 20:45 45.73439 16.05976 355 ft 6 kts 227°
2026-05-07 20:45 45.73398 16.05939 355 ft 6 kts 165°
2026-05-07 20:45 45.73355 16.05992 361 ft 10 kts 136°
2026-05-07 20:46 45.73346 16.06003 354 ft 0 kts 137°